Mountain Home, AR

12:31 AM CDT on June 27, 2017 (GMT -0500)
Baxter County Regional

Weather History for KBPK - July, 2013

Change the Weather History Date:

Monday, July 22, 2013

  Actual Average (KFLP) Record (KFLP)
Temperature  
Mean Temperature 76 °F -  
Max Temperature 84 °F 88 °F 102 °F (2005)
Min Temperature 69 °F 67 °F 62 °F (2007)
Cooling Degree Days 12    
Growing Degree Days 26 (Base 50)    
Moisture  
Dew Point 69 °F    
Average Humidity 87    
Maximum Humidity 100    
Minimum Humidity 58    
Precipitation  
Precipitation 0.32 in - - ()
Sea Level Pressure  
Sea Level Pressure 29.89 in    
Wind  
Wind Speed 2 mph (SW)    
Max Wind Speed 7 mph    
Max Gust Speed 22 mph    
Visibility 5 miles    
Events Fog , Rain , Thunderstorm    
Averages and records for this station are not official NWS values.
T = Trace of Precipitation, MM = Missing Value Source: NWS Daily Summary

Daily Weather History Graph

Daily Weather History Graph

Search for Another Location

Airport or City:

Trip Planner

Search our weather history database for the weather conditions in past years. The results will help you decide how hot, cold, wet, or windy it might be!

Date:

Astronomy

Jul. 22, 2013 Rise Set
Actual Time 6:08 AM CDT 8:23 PM CDT
Civil Twilight 5:39 AM CDT 8:52 PM CDT
Nautical Twilight 5:03 AM CDT 9:28 PM CDT
Astronomical Twilight 4:25 AM CDT 10:06 PM CDT
Moon 8:12 PM CDT (7/22) 6:03 AM CDT (7/22)
Length of Visible Light 15h 12m
Length of Day
14h 14m
Full, 100% of the Moon is Illuminated
Jul 22
Full
Jul 22
Full
Jul 29
Last Quarter
Aug 6
New
Aug 14
First Quarter

Hourly Weather History & Observations

Time (CDT) Temp. Heat Index Dew Point Humidity Pressure Visibility Wind Dir Wind Speed Gust Speed Precip Events Conditions
12:53 AM 73.0 °F - 71.1 °F 93% 29.85 in 4.0 mi Calm Calm - N/A   Mostly Cloudy
1:05 AM 73.4 °F - 71.6 °F 94% 29.88 in 4.0 mi Calm Calm - N/A   Mostly Cloudy
1:13 AM 73.4 °F - 71.6 °F 94% 29.87 in 3.0 mi East 3.5 mph - N/A   Mostly Cloudy
1:24 AM 73.4 °F - 71.6 °F 94% 29.87 in 2.5 mi East 3.5 mph - N/A   Overcast
1:40 AM 73.4 °F - 71.6 °F 94% 29.87 in 1.5 mi Calm Calm - N/A   Overcast
1:53 AM 72.0 °F - 71.1 °F 97% 29.83 in 1.2 mi ENE 3.5 mph - N/A   Overcast
2:53 AM 72.0 °F - 71.1 °F 97% 29.86 in 1.0 mi Calm Calm - N/A   Overcast
3:09 AM 71.6 °F - 71.6 °F 100% 29.87 in 0.8 mi Calm Calm - N/A   Mist
3:18 AM 71.6 °F - 71.6 °F 100% 29.87 in 0.5 mi Calm Calm - N/A Fog Fog
3:34 AM 71.6 °F - 71.6 °F 100% 29.87 in 0.2 mi Calm Calm - N/A Fog Fog
3:53 AM 72.0 °F - 70.0 °F 93% 29.83 in 0.5 mi Calm Calm - N/A Fog Fog
4:08 AM 71.6 °F - 69.8 °F 94% 29.85 in 1.0 mi Calm Calm - N/A   Mist
4:13 AM 71.6 °F - 69.8 °F 94% 29.85 in 0.5 mi Calm Calm - N/A Fog Fog
4:24 AM 71.6 °F - 69.8 °F 94% 29.86 in 0.2 mi Calm Calm - 0.01 in Fog Fog
4:53 AM 71.1 °F - 70.0 °F 96% 29.83 in 0.2 mi SSE 3.5 mph - 0.01 in Fog Fog
5:40 AM 71.6 °F - 69.8 °F 94% 29.88 in 0.2 mi Calm Calm - N/A Fog , Thunderstorm Fog
5:49 AM 71.6 °F - 69.8 °F 94% 29.90 in 0.5 mi Calm Calm - N/A Fog Fog
5:50 AM 71.1 °F - 70.0 °F 96% 29.87 in 0.5 mi Calm Calm - N/A Fog Fog
5:56 AM 71.6 °F - 69.8 °F 94% 29.90 in 1.0 mi SSW 4.6 mph - N/A   Mist
6:10 AM 71.6 °F - 69.8 °F 94% 29.91 in 0.5 mi SW 3.5 mph - N/A Fog Fog
6:21 AM 71.6 °F - 69.8 °F 94% 29.90 in 0.8 mi Calm Calm - 0.00 in Rain , Thunderstorm Light Rain
6:33 AM 71.6 °F - 69.8 °F 94% 29.91 in 1.2 mi Variable 3.5 mph - 0.00 in Rain Light Rain
6:44 AM 71.6 °F - 69.8 °F 94% 29.91 in 1.5 mi Variable 5.8 mph - 0.00 in Rain , Thunderstorm Light Thunderstorms and Rain
6:46 AM 71.6 °F - 69.8 °F 94% 29.91 in 3.0 mi West 4.6 mph - 0.00 in Rain , Thunderstorm Light Thunderstorms and Rain
6:53 AM 71.1 °F - 69.1 °F 93% 29.90 in 6.0 mi West 5.8 mph - 0.00 in Rain Light Rain
7:04 AM 71.6 °F - 69.8 °F 94% 29.94 in 6.0 mi WNW 6.9 mph - 0.00 in Rain , Thunderstorm Light Rain
7:21 AM 71.6 °F - 68.0 °F 88% 29.93 in 4.0 mi NNW 5.8 mph - N/A Rain Rain
7:53 AM 70.0 °F - 66.9 °F 90% 29.87 in 4.0 mi SW 5.8 mph - N/A Rain Light Rain
8:53 AM 69.1 °F - 64.9 °F 87% 29.90 in 10.0 mi Variable 4.6 mph 21.9 mph 0.00 in Rain Light Rain
9:53 AM 69.1 °F - 66.0 °F 90% 29.89 in 7.0 mi Calm Calm - N/A Rain Light Rain
10:53 AM 78.1 °F - 66.0 °F 66% 29.88 in 10.0 mi Calm Calm - 0.00 in   Scattered Clouds
11:53 AM 75.0 °F - 66.0 °F 73% 29.92 in 10.0 mi WSW 4.6 mph - N/A   Mostly Cloudy
12:06 PM 73.4 °F - 68.0 °F 83% 29.95 in 0.8 mi Variable 3.5 mph - 0.14 in Rain Heavy Rain
12:14 PM 71.6 °F - 69.8 °F 94% 29.93 in 1.2 mi Variable 4.6 mph - 0.15 in Rain , Thunderstorm Light Thunderstorms and Rain
12:22 PM 71.6 °F - 69.8 °F 94% 29.93 in 10.0 mi SW 3.5 mph - 0.15 in Thunderstorm Thunderstorm
12:32 PM 73.4 °F - 69.8 °F 88% 29.94 in 9.0 mi Calm Calm - 0.15 in   Overcast
12:40 PM 73.4 °F - 71.6 °F 94% 29.94 in 9.0 mi SW 3.5 mph - 0.15 in Thunderstorm Overcast
12:53 PM 75.0 °F - 69.1 °F 82% 29.91 in 10.0 mi South 3.5 mph - 0.15 in Thunderstorm Overcast
1:05 PM 75.2 °F - 69.8 °F 83% 29.94 in 10.0 mi Calm Calm - N/A   Mostly Cloudy
1:18 PM 73.4 °F - 69.8 °F 88% 29.94 in 2.5 mi South 5.8 mph - 0.08 in Rain , Thunderstorm Heavy Thunderstorms and Rain
1:25 PM 73.4 °F - 69.8 °F 88% 29.93 in 1.2 mi SE 3.5 mph - 0.16 in Rain , Thunderstorm Heavy Thunderstorms and Rain
1:30 PM 73.4 °F - 69.8 °F 88% 29.93 in 3.0 mi Calm Calm - 0.16 in Rain , Thunderstorm Light Thunderstorms and Rain
1:53 PM 75.9 °F - 70.0 °F 82% 29.89 in 10.0 mi Calm Calm - 0.16 in Thunderstorm Scattered Clouds
2:24 PM 80.6 °F 83.9 °F 69.8 °F 70% 29.91 in 10.0 mi SW 4.6 mph - N/A   Partly Cloudy
2:53 PM 82.0 °F 84.5 °F 66.9 °F 60% 29.89 in 10.0 mi SW 5.8 mph - N/A   Clear
3:53 PM 82.9 °F 86.5 °F 69.1 °F 63% 29.88 in 10.0 mi WSW 4.6 mph - N/A   Clear
4:53 PM 84.0 °F 87.0 °F 68.0 °F 58% 29.86 in 10.0 mi WNW 3.5 mph - N/A   Clear
5:53 PM 82.9 °F 86.5 °F 69.1 °F 63% 29.85 in 10.0 mi SSW 5.8 mph - N/A   Clear
6:53 PM 81.0 °F 83.3 °F 66.9 °F 62% 29.83 in 10.0 mi Calm Calm - N/A   Clear
7:53 PM 78.1 °F - 70.0 °F 76% 29.85 in 10.0 mi Calm Calm - N/A   Clear
8:53 PM 77.0 °F - 71.1 °F 82% 29.85 in 10.0 mi Calm Calm - N/A   Clear
9:53 PM 77.0 °F - 71.1 °F 82% 29.84 in 10.0 mi SSW 4.6 mph - N/A   Clear
10:53 PM 75.0 °F - 66.9 °F 76% 29.85 in 10.0 mi Calm Calm - N/A   Clear
11:53 PM 75.9 °F - 64.9 °F 69% 29.87 in 10.0 mi SW 3.5 mph - N/A   Clear